Wind_Speed
25 25 25 26 27 27 26 24 22 20 20 20 21 21 21 21 21 20 19 18 18 17 17 16 16 15 15 14 14 14 14 14 14 14 13 13 13 13 13 13 14 14 14 14 14 14 14 13 13
26 26 27 27 28 28 26 24 23 21 22 22 22 22 22 22 22 21 20 19 18 18 17 17 16 16 15 15 15 15 15 15 14 14 14 14 14 14 14 14 15 15 15 15 16 15 15 14 14
27 27 28 28 28 27 26 25 24 23 24 24 24 23 23 23 22 21 20 20 19 18 18 17 17 16 16 16 15 15 16 15 16 15 15 14 14 15 15 15 16 16 16 16 16 16 16 16 15
28 29 30 30 28 27 26 26 25 24 25 25 25 24 23 23 22 21 21 21 20 20 19 18 18 17 17 17 16 16 16 16 16 16 16 15 15 15 15 16 16 16 16 17 17 17 17 17 17
29 30 31 30 29 27 27 27 27 26 26 26 26 25 24 23 23 23 22 22 21 21 20 20 20 19 18 18 18 18 18 17 17 17 17 17 16 16 16 16 16 17 17 18 18 18 18 18 18
30 30 31 30 29 28 28 28 28 28 27 27 27 26 24 24 24 24 23 23 22 22 22 21 21 21 20 20 20 19 19 19 19 18 18 18 17 17 17 17 17 17 18 18 18 18 19 19 19
31 31 31 30 29 29 28 28 29 28 28 28 28 27 25 25 25 25 25 24 24 23 23 23 22 22 21 21 20 21 20 20 20 19 19 19 18 17 17 18 18 18 18 19 19 19 19 19 20
32 32 31 30 30 29 29 29 29 29 29 29 29 29 27 27 26 26 26 26 26 25 25 24 24 23 22 22 22 22 21 21 20 20 20 20 19 19 18 19 19 19 19 19 20 20 20 20 21
33 33 31 30 30 29 29 30 30 30 30 29 29 29 29 28 28 27 27 27 27 27 26 26 25 24 23 23 23 22 22 22 21 21 21 21 21 20 20 20 20 21 21 21 21 21 21 22 22
32 33 31 30 31 31 31 31 31 31 30 31 30 30 29 29 29 28 28 28 28 28 27 26 26 25 25 25 24 24 23 23 22 22 22 22 22 22 22 22 21 21 22 22 22 22 23 23 23
32 31 30 30 30 31 31 31 32 32 31 31 32 31 31 31 30 29 30 30 29 29 28 27 27 26 26 25 25 25 25 24 24 24 23 23 23 23 23 23 23 23 23 23 23 24 24 25 25
32 31 30 30 31 31 31 32 32 32 32 32 33 33 33 33 32 31 31 31 31 30 30 29 28 27 27 26 26 26 26 25 25 25 24 24 24 25 25 25 25 24 24 24 24 25 26 26 26
32 31 31 31 31 31 31 32 33 33 33 34 34 35 35 35 34 33 33 32 32 31 31 30 30 29 28 28 28 27 27 27 27 26 26 26 26 26 26 26 26 26 26 26 26 26 27 27 28
31 31 31 31 31 31 32 32 33 33 34 35 35 35 35 36 35 34 34 34 34 33 32 32 31 31 30 30 30 29 29 28 28 28 28 28 28 28 27 27 27 27 27 27 27 28 28 28 28
30 31 31 31 31 32 33 33 34 34 35 35 35 35 36 36 37 36 35 34 34 33 33 33 33 32 32 31 31 31 31 30 29 29 29 29 29 29 28 28 28 28 28 28 28 29 29 29 29
31 31 31 30 31 33 34 34 34 35 36 36 36 35 35 36 36 36 35 34 34 33 33 33 34 34 33 33 33 32 32 31 31 30 30 30 30 30 30 29 28 29 28 28 28 28 29 30 29
31 32 31 31 31 32 34 34 33 34 35 36 36 35 35 36 36 36 36 35 34 34 34 35 34 34 34 34 34 33 33 33 32 32 31 31 31 30 30 30 29 29 29 29 28 28 28 29 30
31 31 31 31 31 32 33 34 33 33 34 35 35 34 34 35 36 36 37 36 35 35 36 36 36 35 35 34 34 34 33 34 34 33 33 32 31 31 30 30 29 29 30 30 30 30 30 30 30
31 32 32 32 32 33 33 33 33 34 34 35 34 34 34 34 35 36 37 37 37 36 36 37 37 37 37 36 36 35 35 34 34 34 34 33 32 31 31 31 30 30 30 31 31 31 31 31 31
31 32 32 32 32 33 34 33 33 34 34 35 35 34 34 35 35 36 37 38 38 37 37 37 37 38 38 37 36 37 36 35 35 34 34 34 33 33 33 33 32 32 31 32 32 33 32 32 33
32 33 33 33 32 33 34 34 33 33 34 34 35 35 35 36 36 36 37 38 39 38 38 38 39 38 38 38 37 37 37 36 36 35 35 35 34 34 34 34 33 33 32 33 34 34 33 33 33
32 33 33 33 33 33 34 35 33 33 33 33 34 35 35 36 37 37 37 38 39 38 39 39 40 39 39 39 38 38 37 37 37 37 36 36 36 36 35 34 34 34 34 34 35 35 35 35 35
31 32 33 34 34 34 33 35 34 33 33 33 33 34 34 35 36 36 37 37 38 38 38 38 39 39 40 40 40 38 38 38 38 37 37 36 37 37 37 36 36 35 35 35 36 36 37 37 37
30 31 32 33 34 35 33 35 34 33 32 32 32 33 33 34 35 36 36 37 38 39 40 39 39 40 40 40 40 39 39 39 38 38 38 38 38 38 38 38 37 36 37 37 37 37 38 38 39
30 30 31 33 34 34 32 34 34 32 32 31 31 32 32 34 35 35 36 36 37 39 40 40 40 40 41 41 41 41 40 40 40 39 39 39 39 40 39 39 39 39 39 39 39 39 38 39 39
29 30 30 32 34 34 33 33 33 32 32 32 32 32 32 33 33 34 35 36 37 37 39 40 40 41 41 41 42 42 42 41 41 41 40 40 41 41 41 41 40 40 40 41 41 41 41 41 41
28 29 29 31 33 34 33 33 32 31 31 31 31 31 32 32 32 33 34 35 36 36 37 39 40 41 42 42 42 42 42 42 42 43 43 42 42 42 42 42 42 42 41 41 41 42 42 42 42
26 27 28 29 31 32 33 32 31 30 30 30 30 31 32 32 32 32 33 34 35 35 36 37 38 40 41 42 43 43 43 44 44 44 44 44 44 44 44 45 44 44 44 43 42 42 42 43 43
25 26 27 29 30 32 33 32 30 29 30 29 30 30 31 31 32 32 33 33 35 36 36 36 37 39 41 42 42 43 44 44 44 44 44 45 45 46 47 48 47 46 46 46 46 45 45 45 45
25 25 26 27 29 31 32 31 29 29 30 30 30 30 31 31 31 31 32 33 34 35 35 36 37 38 40 41 42 43 44 44 45 45 46 46 47 48 48 49 49 48 48 48 48 47 47 47 47
Wind_Direction
257 257 257 256 257 258 259 261 261 261 261 259 257 257 257 256 256 257 257 256 257 256 256 255 253 251 251 250 250 252 252 253 254 256 255 254 254 255 256 258 258 258 258 258 256 257 257 256 254
258 257 257 256 257 258 259 260 261 260 259 257 256 256 256 255 255 256 256 256 256 256 255 254 253 251 249 249 250 253 254 255 255 255 255 255 256 257 258 259 259 261 260 257 255 256 256 257 254
258 257 257 257 257 259 261 260 259 257 256 256 255 256 256 256 255 256 256 255 255 255 254 253 253 252 250 250 250 252 253 254 255 255 256 258 259 259 260 261 261 261 259 256 255 255 255 256 257
258 257 257 257 258 259 259 258 257 255 254 254 254 254 255 255 255 254 254 255 254 254 253 253 253 252 252 250 250 251 252 254 255 256 257 259 260 261 261 260 261 261 259 256 255 255 256 256 257
259 258 257 258 258 258 257 256 256 253 252 253 254 253 253 254 253 253 253 253 254 254 253 252 253 252 252 250 251 253 254 253 254 256 257 258 260 263 262 261 260 261 261 259 256 254 255 256 256
261 260 259 259 258 257 255 255 254 252 251 251 253 253 253 253 252 252 253 253 253 253 253 252 253 252 252 250 251 254 254 254 254 255 255 256 259 261 260 260 262 263 262 261 259 257 256 255 256
260 260 260 260 258 256 255 254 254 252 251 251 252 253 252 252 252 252 252 252 253 253 253 252 253 253 253 251 251 253 253 253 254 254 254 253 256 259 260 261 262 263 261 260 259 259 258 255 255
259 259 259 259 258 256 254 254 254 253 250 250 251 252 252 252 252 252 252 251 252 252 252 253 252 252 253 252 252 253 253 253 255 255 255 255 256 259 260 262 263 262 261 259 259 259 259 258 256
258 258 259 260 258 257 255 253 253 253 251 250 251 252 252 251 251 251 251 251 251 251 251 252 251 251 251 252 252 252 253 254 254 254 255 257 258 259 261 262 263 263 261 261 259 258 257 257 257
257 257 259 259 258 257 256 253 251 252 252 251 251 251 250 250 250 251 251 251 251 251 251 250 250 250 250 251 251 251 253 254 253 254 255 256 257 258 260 261 262 262 261 260 259 257 257 257 256
257 257 258 257 257 256 256 253 251 251 252 252 251 250 249 249 249 250 250 250 249 250 250 249 249 250 250 250 250 251 252 254 254 255 255 255 257 257 259 260 261 262 262 261 259 256 256 256 256
258 258 258 257 256 256 256 254 251 251 252 252 250 249 247 247 248 249 250 250 249 248 249 249 249 249 249 249 249 250 252 254 255 255 255 255 256 258 259 260 261 262 261 260 259 258 258 256 256
258 258 258 257 257 256 256 255 253 251 251 251 250 249 247 247 247 247 249 248 249 249 248 249 249 249 249 249 249 250 251 253 255 255 255 256 257 258 260 261 262 261 260 260 259 261 257 256 256
259 258 257 256 257 256 256 256 254 252 251 252 252 250 249 248 246 246 247 247 247 249 248 247 248 247 247 248 249 250 252 253 254 254 255 256 257 258 259 261 262 262 261 260 260 260 258 257 257
260 259 258 257 257 257 257 256 255 254 253 253 253 252 249 248 247 245 245 247 247 247 246 246 247 247 247 248 249 251 252 253 254 254 255 256 257 258 260 261 262 262 263 262 261 260 259 259 259
260 259 258 258 257 257 258 259 257 256 256 255 254 253 251 246 246 245 245 246 246 247 246 245 246 246 247 248 249 250 251 252 253 253 254 255 256 258 260 261 262 262 262 262 262 262 261 260 259
260 259 259 258 257 258 259 259 258 257 257 256 255 253 251 248 246 245 244 244 245 246 246 246 245 246 247 248 249 249 250 252 253 254 254 255 256 258 260 261 262 261 261 262 262 261 262 261 259
262 262 261 260 259 260 260 259 258 256 256 255 254 253 251 249 246 246 245 245 246 246 247 246 245 245 246 247 247 249 251 252 253 255 256 256 257 257 258 260 262 262 261 262 262 262 262 262 261
262 263 263 262 260 260 260 259 258 257 255 254 253 252 251 250 249 246 245 246 246 247 246 245 245 246 247 248 249 250 250 252 253 254 255 255 256 256 257 259 261 262 262 263 263 263 263 262 262
263 263 264 263 262 260 260 259 257 257 256 253 252 251 250 250 250 249 246 245 246 247 246 244 245 245 246 248 249 250 250 250 253 254 254 254 254 255 256 258 261 263 263 263 264 264 262 263 263
263 264 264 264 263 262 261 259 257 256 257 254 252 251 250 251 250 250 248 246 246 247 248 248 247 247 247 247 249 250 250 250 252 253 255 256 256 256 258 259 261 264 265 265 264 263 262 264 264
264 264 265 264 264 263 262 261 256 255 255 254 253 253 252 252 251 250 248 246 246 247 248 249 248 249 248 249 249 250 250 250 251 253 255 256 256 256 257 259 261 263 265 264 263 262 263 264 265
266 265 265 264 265 265 263 263 258 255 254 253 252 252 253 253 252 250 249 248 247 246 248 249 249 249 250 250 250 249 249 249 251 253 254 255 256 256 257 258 260 262 264 264 264 263 264 266 266
268 267 265 265 265 266 264 263 261 257 256 255 254 253 253 253 252 252 251 250 249 247 248 249 250 251 251 250 250 249 249 250 251 253 253 255 256 256 257 257 259 263 265 265 265 265 266 267 268
267 267 266 265 265 265 265 263 261 260 258 257 256 255 253 253 253 253 252 251 250 249 249 249 250 251 251 251 250 249 249 250 252 253 254 255 256 256 257 257 259 262 264 265 266 266 267 268 269
266 265 265 267 267 266 264 263 263 261 260 259 258 256 255 253 253 253 253 251 250 250 250 250 250 251 252 251 251 251 250 250 252 254 254 256 256 256 257 258 259 262 263 265 266 267 267 268 269
269 265 265 266 267 267 265 264 263 262 261 260 258 257 256 254 253 253 253 253 252 251 252 252 252 252 252 252 252 253 252 253 254 254 255 256 257 257 258 259 260 261 264 265 265 267 268 269 269
273 269 266 264 266 267 266 265 264 261 261 261 260 258 257 255 254 254 253 253 252 253 253 254 253 253 253 253 253 254 254 254 255 256 256 256 257 258 257 259 261 262 263 265 266 267 268 269 270
274 271 268 266 265 267 268 266 265 263 262 261 261 259 258 256 255 254 254 254 253 254 254 254 253 253 253 253 253 254 255 256 256 257 257 257 257 259 259 259 260 261 262 265 266 267 268 269 271
274 273 270 267 266 267 268 268 266 263 261 260 260 259 258 257 256 255 255 255 254 255 255 254 254 254 254 254 254 255 255 256 256 257 257 257 258 259 260 260 260 262 263 265 266 268 268 270 270
Height
5779 5779 5780 5781 5782 5782 5783 5786 5788 5789 5790 5790 5791 5791 5792 5794 5795 5799 5798 5798 5799 5800 5801 5802 5803 5805 5806 5807 5808 5810 5811 5812 5813 5814 5815 5816 5817 5818 5819 5820 5822 5823 5824 5825 5826 5827 5828 5829 5830
5773 5774 5775 5775 5775 5777 5779 5781 5783 5785 5785 5785 5786 5787 5788 5789 5790 5792 5793 5794 5795 5797 5798 5799 5800 5802 5803 5804 5805 5807 5808 5809 5810 5811 5812 5813 5815 5816 5817 5818 5819 5820 5821 5822 5823 5824 5825 5826 5827
5768 5768 5769 5769 5770 5772 5775 5777 5778 5779 5779 5780 5781 5782 5783 5785 5786 5787 5789 5790 5791 5793 5794 5796 5797 5798 5800 5801 5802 5804 5805 5806 5807 5808 5809 5810 5812 5813 5814 5815 5816 5817 5818 5819 5820 5821 5822 5823 5824
5762 5762 5763 5764 5764 5768 5769 5770 5772 5773 5774 5774 5776 5777 5779 5780 5782 5783 5784 5786 5788 5789 5790 5792 5793 5795 5796 5798 5799 5800 5801 5802 5804 5805 5806 5807 5808 5809 5810 5811 5812 5814 5815 5816 5817 5818 5819 5820 5821
5755 5755 5756 5756 5759 5762 5763 5764 5765 5767 5768 5769 5770 5772 5774 5775 5776 5778 5780 5781 5783 5785 5786 5788 5789 5791 5792 5794 5795 5796 5798 5799 5800 5801 5802 5804 5805 5806 5807 5808 5809 5810 5811 5812 5813 5814 5815 5816 5818
5748 5748 5749 5750 5753 5755 5757 5757 5758 5760 5762 5763 5765 5767 5769 5770 5772 5773 5775 5777 5778 5780 5782 5784 5785 5787 5789 5790 5791 5793 5794 5795 5796 5797 5799 5800 5801 5802 5803 5804 5805 5806 5807 5808 5809 5810 5811 5813 5814
5741 5741 5742 5744 5746 5749 5750 5751 5752 5754 5756 5758 5759 5761 5764 5765 5767 5768 5770 5772 5773 5775 5777 5779 5781 5782 5784 5786 5787 5789 5790 5791 5792 5793 5794 5796 5797 5798 5799 5800 5801 5802 5803 5804 5805 5806 5807 5808 5810
5733 5734 5735 5737 5740 5742 5744 5744 5746 5748 5750 5752 5753 5756 5758 5760 5761 5763 5764 5766 5768 5770 5772 5774 5776 5778 5779 5781 5783 5784 5785 5786 5788 5789 5790 5791 5792 5793 5795 5796 5797 5798 5799 5800 5801 5802 5803 5804 5805
5725 5727 5728 5731 5733 5735 5736 5738 5739 5741 5743 5745 5747 5750 5752 5754 5755 5757 5759 5761 5763 5765 5767 5769 5770 5772 5774 5776 5778 5779 5781 5782 5783 5784 5785 5787 5788 5789 5790 5791 5792 5793 5794 5795 5796 5797 5798 5799 5800
5717 5718 5723 5725 5726 5727 5728 5730 5732 5734 5736 5739 5741 5743 5745 5747 5749 5751 5753 5755 5757 5759 5761 5763 5765 5767 5769 5771 5772 5774 5775 5777 5778 5779 5781 5782 5783 5784 5785 5786 5787 5788 5789 5790 5791 5792 5793 5795 5796
5709 5712 5716 5717 5718 5719 5721 5722 5724 5727 5729 5731 5734 5736 5738 5740 5742 5744 5746 5748 5751 5753 5755 5757 5759 5761 5763 5765 5767 5768 5770 5771 5773 5774 5775 5777 5778 5779 5780 5781 5782 5783 5784 5785 5786 5787 5788 5789 5790
5703 5705 5707 5709 5710 5711 5713 5714 5716 5719 5722 5724 5725 5727 5730 5732 5735 5737 5739 5741 5744 5746 5748 5751 5753 5755 5757 5759 5761 5763 5764 5766 5767 5769 5770 5771 5772 5773 5774 5775 5776 5777 5778 5779 5780 5781 5782 5783 5784
5695 5698 5700 5701 5702 5704 5705 5707 5709 5711 5714 5715 5717 5719 5721 5724 5727 5729 5732 5734 5736 5738 5741 5744 5746 5748 5750 5752 5754 5756 5758 5760 5761 5763 5764 5765 5766 5767 5768 5769 5770 5771 5772 5773 5774 5775 5776 5777 5778
5689 5690 5692 5694 5695 5696 5698 5699 5701 5704 5705 5706 5708 5711 5713 5716 5718 5721 5724 5726 5729 5731 5734 5737 5739 5741 5743 5746 5748 5750 5751 5753 5755 5756 5758 5759 5760 5761 5762 5763 5764 5765 5765 5766 5767 5768 5769 5770 5771
5681 5682 5684 5686 5688 5689 5690 5692 5693 5696 5696 5698 5700 5702 5704 5707 5710 5713 5716 5719 5721 5723 5726 5729 5732 5734 5736 5738 5741 5743 5745 5746 5748 5749 5751 5752 5753 5754 5755 5756 5757 5758 5759 5760 5760 5761 5762 5763 5764
5673 5674 5676 5680 5680 5681 5683 5684 5686 5687 5688 5690 5691 5693 5695 5698 5701 5704 5707 5710 5713 5716 5719 5722 5724 5726 5729 5731 5733 5735 5737 5739 5741 5742 5744 5745 5746 5747 5748 5749 5750 5751 5752 5753 5753 5754 5755 5756 5757
5666 5667 5669 5672 5672 5672 5673 5675 5678 5678 5679 5680 5682 5684 5686 5689 5692 5695 5699 5702 5705 5708 5711 5713 5716 5718 5721 5723 5726 5728 5730 5732 5733 5735 5736 5737 5739 5740 5741 5742 5743 5744 5745 5746 5747 5747 5748 5748 5749
5660 5660 5661 5663 5664 5664 5664 5666 5669 5669 5670 5671 5674 5676 5678 5681 5684 5687 5690 5693 5696 5699 5702 5704 5707 5710 5712 5715 5717 5720 5722 5724 5726 5727 5729 5730 5731 5733 5734 5735 5736 5737 5737 5738 5739 5740 5740 5741 5742
5652 5652 5653 5654 5655 5655 5656 5657 5659 5661 5662 5663 5665 5668 5670 5673 5676 5678 5681 5685 5688 5691 5693 5695 5698 5701 5704 5707 5709 5712 5714 5716 5717 5719 5721 5722 5724 5725 5726 5727 5728 5729 5730 5730 5731 5731 5732 5733 5734
5643 5644 5645 5646 5646 5646 5647 5649 5651 5652 5654 5656 5658 5660 5663 5665 5667 5670 5673 5676 5679 5681 5684 5686 5689 5692 5695 5698 5700 5703 5705 5707 5709 5711 5712 5714 5715 5717 5719 5720 5721 5721 5722 5722 5722 5723 5723 5724 5725
5636 5636 5637 5638 5638 5638 5638 5640 5643 5644 5645 5647 5650 5652 5654 5657 5659 5661 5664 5667 5669 5672 5675 5678 5680 5683 5686 5689 5691 5694 5696 5698 5701 5702 5704 5705 5707 5709 5710 5711 5712 5713 5713 5714 5714 5714 5715 5715 5716
5628 5629 5629 5629 5629 5630 5631 5630 5635 5636 5637 5639 5641 5644 5646 5648 5650 5652 5655 5657 5661 5664 5666 5669 5671 5674 5677 5679 5682 5684 5687 5690 5692 5694 5695 5697 5699 5700 5701 5702 5704 5704 5705 5706 5705 5706 5706 5707 5707
5620 5620 5621 5621 5620 5621 5622 5622 5626 5627 5629 5631 5634 5636 5638 5640 5642 5644 5646 5649 5651 5654 5657 5660 5662 5665 5668 5670 5672 5675 5678 5681 5683 5685 5687 5688 5690 5691 5692 5694 5695 5696 5696 5696 5696 5697 5697 5698 5698
5611 5612 5612 5612 5611 5612 5615 5614 5616 5619 5621 5624 5626 5627 5629 5631 5633 5635 5637 5640 5642 5645 5648 5650 5653 5656 5658 5661 5663 5666 5669 5671 5674 5676 5678 5679 5681 5682 5683 5684 5685 5686 5687 5687 5687 5688 5688 5688 5689
5603 5604 5604 5603 5603 5604 5607 5605 5608 5611 5613 5615 5617 5618 5620 5622 5624 5626 5628 5630 5633 5635 5638 5641 5643 5646 5648 5651 5653 5656 5659 5662 5664 5666 5668 5670 5671 5672 5673 5674 5675 5676 5677 5677 5677 5678 5678 5678 5678
5595 5596 5596 5595 5595 5596 5597 5597 5601 5603 5604 5606 5608 5609 5611 5613 5615 5617 5619 5621 5623 5626 5628 5631 5634 5636 5638 5641 5644 5646 5649 5651 5654 5656 5658 5659 5661 5662 5663 5664 5665 5666 5666 5667 5667 5667 5668 5668 5668
5588 5588 5588 5588 5587 5587 5588 5590 5593 5594 5596 5597 5599 5601 5602 5604 5606 5608 5610 5612 5614 5617 5619 5621 5624 5626 5628 5631 5634 5636 5638 5641 5643 5645 5647 5649 5650 5651 5652 5653 5654 5655 5655 5656 5656 5656 5656 5657 5656
5581 5581 5581 5580 5579 5579 5581 5583 5585 5587 5588 5589 5590 5592 5593 5595 5597 5599 5601 5603 5605 5607 5609 5612 5613 5616 5618 5621 5623 5626 5628 5630 5632 5634 5636 5637 5639 5640 5641 5642 5643 5644 5645 5645 5645 5645 5645 5645 5645
5575 5574 5573 5573 5573 5573 5573 5578 5578 5579 5580 5581 5582 5584 5585 5587 5588 5590 5592 5594 5596 5598 5600 5602 5604 5606 5608 5610 5613 5615 5617 5619 5620 5622 5624 5626 5627 5629 5630 5631 5632 5633 5633 5633 5634 5634 5633 5633 5633
5567 5567 5567 5567 5566 5566 5566 5571 5570 5571 5572 5573 5575 5576 5577 5579 5580 5581 5583 5585 5587 5588 5590 5592 5594 5596 5598 5600 5602 5604 5606 5607 5609 5611 5612 5613 5615 5616 5618 5619 5620 5620 5621 5621 5622 5622 5621 5621 5621